TimeEST,TemperatureF,Dew PointF,Humidity,Sea Level PressureIn,VisibilityMPH,Wind Direction,Wind SpeedMPH,Gust SpeedMPH,PrecipitationIn,Events,Conditions,WindDirDegrees,DateUTC
12:53 AM,21.9,-4.0,32,29.99,10.0,Variable,5.8,-,N/A,,Clear,0,2014-01-25 05:53:00
1:53 AM,24.1,-2.9,31,29.93,10.0,SSW,9.2,20.7,N/A,,Clear,210,2014-01-25 06:53:00
2:53 AM,25.0,-4.0,28,29.91,10.0,SW,8.1,27.6,N/A,,Scattered Clouds,220,2014-01-25 07:53:00
3:53 AM,25.0,-2.9,30,29.86,10.0,Variable,4.6,23.0,N/A,,Overcast,0,2014-01-25 08:53:00
4:53 AM,25.0,-2.0,31,29.81,10.0,SW,8.1,21.9,N/A,,Overcast,230,2014-01-25 09:53:00
5:53 AM,25.0,-0.0,34,29.78,10.0,SSW,11.5,23.0,N/A,,Overcast,210,2014-01-25 10:53:00
6:53 AM,25.0,7.0,46,29.77,10.0,SW,11.5,25.3,N/A,,Overcast,230,2014-01-25 11:53:00
7:11 AM,23.0,10.9,60,29.72,2.5,SW,15.0,31.1,0.00,Snow,Light Snow,230,2014-01-25 12:11:00
7:16 AM,21.9,12.9,68,29.72,1.5,SW,13.8,27.6,0.00,Snow,Light Snow,230,2014-01-25 12:16:00
7:40 AM,21.0,16.0,81,29.70,1.0,North,-9999.0,-,0.01,Snow,Light Snow,0,2014-01-25 12:40:00
7:53 AM,21.0,16.0,81,29.75,0.8,SSW,8.1,-,0.02,Snow,Light Snow,210,2014-01-25 12:53:00
8:16 AM,21.0,17.1,85,29.70,0.2,Variable,6.9,-,0.01,Fog-Snow,Snow,0,2014-01-25 13:16:00
8:53 AM,21.0,18.0,88,29.74,0.2,Variable,5.8,-,0.06,Fog-Snow,Snow,0,2014-01-25 13:53:00
9:53 AM,21.9,19.0,89,29.73,0.2,Variable,5.8,18.4,0.07,Fog-Snow,Snow,0,2014-01-25 14:53:00
10:53 AM,21.9,19.0,89,29.73,0.2,SW,9.2,18.4,0.05,Fog-Snow,Snow,220,2014-01-25 15:53:00
11:12 AM,23.0,19.0,85,29.68,0.2,North,-9999.0,-,0.01,Fog-Snow,Snow,0,2014-01-25 16:12:00
11:24 AM,23.0,19.0,85,29.67,1.2,SW,10.4,23.0,0.02,Snow,Light Snow,230,2014-01-25 16:24:00
11:27 AM,23.0,19.0,85,29.67,2.5,SW,11.5,23.0,0.02,Snow,Light Snow,230,2014-01-25 16:27:00
11:34 AM,23.0,19.0,85,29.67,8.0,WSW,10.4,24.2,0.02,,Overcast,240,2014-01-25 16:34:00
11:53 AM,24.1,19.0,81,29.71,10.0,SW,9.2,21.9,0.02,,Overcast,220,2014-01-25 16:53:00
12:53 PM,25.0,19.0,78,29.68,10.0,SW,10.4,18.4,N/A,,Overcast,220,2014-01-25 17:53:00
1:33 PM,27.0,19.9,75,29.62,10.0,SW,8.1,21.9,N/A,,Overcast,220,2014-01-25 18:33:00
1:53 PM,27.0,19.9,75,29.65,10.0,SW,9.2,19.6,N/A,,Overcast,230,2014-01-25 18:53:00
2:53 PM,30.9,23.0,72,29.64,5.0,North,-9999.0,-,0.00,Snow,Light Snow,0,2014-01-25 19:53:00
3:02 PM,30.0,21.9,72,29.61,7.0,North,-9999.0,-,0.00,Snow,Light Snow,0,2014-01-25 20:02:00
3:10 PM,28.9,21.9,75,29.61,2.0,SW,9.2,19.6,0.00,Snow,Light Snow,220,2014-01-25 20:10:00
3:19 PM,28.9,21.9,75,29.61,3.0,WSW,8.1,21.9,0.00,Snow,Light Snow,240,2014-01-25 20:19:00
3:27 PM,30.0,21.9,72,29.61,9.0,Variable,6.9,-,0.00,,Overcast,0,2014-01-25 20:27:00
3:35 PM,30.0,21.0,69,29.61,10.0,Variable,4.6,-,0.00,,Overcast,0,2014-01-25 20:35:00
3:53 PM,30.9,21.0,67,29.65,10.0,WSW,9.2,16.1,0.00,,Overcast,240,2014-01-25 20:53:00
4:53 PM,32.0,19.9,61,29.64,10.0,SW,10.4,19.6,0.00,,Overcast,230,2014-01-25 21:53:00
5:53 PM,30.9,24.1,76,29.68,10.0,SW,9.2,20.7,N/A,,Overcast,230,2014-01-25 22:53:00
6:53 PM,30.9,26.1,82,29.75,9.0,West,8.1,16.1,0.00,,Overcast,270,2014-01-25 23:53:00
7:53 PM,28.0,5.0,38,29.82,10.0,WNW,13.8,28.8,N/A,,Partly Cloudy,300,2014-01-26 00:53:00
8:53 PM,25.0,3.0,39,29.86,10.0,West,8.1,20.7,N/A,,Clear,260,2014-01-26 01:53:00
9:53 PM,24.1,-0.0,35,29.91,10.0,WNW,9.2,19.6,N/A,,Clear,290,2014-01-26 02:53:00
10:53 PM,21.9,-0.9,37,29.94,10.0,North,-9999.0,-,N/A,,Clear,0,2014-01-26 03:53:00
11:53 PM,19.0,-2.9,38,29.95,10.0,WSW,6.9,-,N/A,,Clear,240,2014-01-26 04:53:00